Probability
0 0 0 0 0 0 0 0 0 0 0 0 0 0 0 0 0 0 0 0 0 0 0 0 0 0 0 0 0 0 0 0 0 0 0 0 0 0 0 0 0 0 0 0
0 0 0 0 0 0 0 0 0 0 0 0 0 0 0 0 0 0 0 0 0 0 0 0 0 0 0 0 0 0 0 0 0 0 0 0 0 0 0 0 0 0 0 0
0 0 0 0 0 0 0 0 0 0 0 0 0 0 0 0 0 0 0 0 0 0 0 0 0 0 0 0 0 0 0 0 0 0 0 0 0 0 0 0 0 0 0 0
0 0 0 0 0 0 0 0 0 0 0 0 0 0 0 0 0 0 0 0 0 0 0 0 0 0 0 0 0 0 0 0 0 0 0 0 0 0 0 0 0 0 0 0
0 0 0 0 0 0 0 0 0 0 0 0 0 0 0 0 0 0 0 0 0 0 0 0 0 0 0 0 0 0 0 0 0 0 0 0 0 0 0 0 0 0 0 0
0 0 0 0 0 0 0 0 0 0 0 0 0 0 0 0 0 0 0 0 0 0 0 0 0 0 0 0 0 0 0 0 0 0 0 0 0 0 0 0 0 0 0 0
0 0 0 0 0 0 0 0 0 0 0 0 0 0 0 0 0 0 0 0 0 0 0 0 0 0 0 0 0 0 0 0 0 0 0 0 0 0 0 0 0 0 0 0
0 0 0 0 0 0 0 0 0 0 0 0 0 0 0 0 0 0 0 0 0 0 0 0 0 0 0 0 0 0 0 0 0 0 0 0 0 0 0 0 0 0 0 0
0 0 0 0 0 0 0 0 0 0 0 0 0 0 0 0 0 0 0 0 0 0 0 0 0 0 0 0 0 0 0 0 0 0 0 0 0 0 0 0 0 0 0 0
0 0 0 0 0 0 0 0 0 0 0 0 0 0 0 0 0 0 0 0 0 0 0 0 0 0 0 0 0 0 0 0 0 0 0 0 0 0 0 0 0 0 0 0
0 0 0 0 0 0 0 0 0 0 0 0 0 0 0 0 0 0 0 0 0 0 0 0 0 0 0 0 0 0 0 0 0 0 0 0 0 0 0 0 0 0 0 0
0 0 0 0 0 0 0 0 0 0 0 0 0 0 0 0 0 0 0 0 0 0 0 0 0 0 0 0 0 0 0 0 0 0 0 0 0 0 0 0 0 0 0 0
0 0 0 0 0 0 0 0 0 0 0 0 0 0 0 0 0 0 0 0 0 0 0 0 0 0 0 0 0 0 0 0 0 0 0 0 0 0 0 0 0 0 0 0
0 0 0 0 0 0 0 0 0 0 0 0 0 0 0 0 0 0 0 0 0 0 0 0 0 0 0 0 0 0 0 0 0 0 0 0 0 0 0 0 0 0 0 0
0 0 0 0 0 0 0 0 0 0 0 0 0 0 0 0 0 0 0 0 0 0 0 0 0 0 0 0 0 0 0 0 0 0 0 0 0 0 0 0 0 0 0 0
0 0 0 0 0 0 0 0 0 0 0 0 0 0 0 0 0 0 0 0 0 0 0 0 0 0 0 0 0 0 0 0 0 0 0 0 0 0 0 0 0 0 0 0
0 0 0 0 0 0 0 0 0 0 0 0 0 0 0 0 0 0 0 0 0 0 0 0 0 0 0 0 0 0 0 0 0 0 0 0 0 0 0 0 0 0 0 0
0 0 0 0 0 0 0 0 0 0 0 0 0 0 0 0 0 0 0 0 0 0 0 0 0 0 0 0 0 0 0 0 0 0 0 0 0 0 0 0 0 0 0 0
0 0 0 0 0 0 0 0 0 0 0 0 0 0 0 0 0 0 0 0 0 0 0 0 0 0 0 0 0 0 0 0 0 0 0 0 0 0 0 0 0 0 0 0
0 0 0 0 0 0 0 0 0 0 0 0 0 0 0 0 0 0 0 0 0 0 0 0 0 0 0 0 0 0 0 0 0 0 0 0 0 0 0 0 0 0 0 0
0 0 0 0 0 0 0 0 0 0 0 0 0 0 0 0 0 0 0 0 0 0 0 0 0 0 0 0 0 0 0 0 0 0 0 0 0 0 0 0 0 0 0 0
0 0 0 0 0 0 0 0 0 0 0 0 0 0 0 0 0 0 0 0 0 0 0 0 0 0 0 0 0 0 0 0 0 0 0 0 0 0 0 0 0 0 0 0
0 0 0 0 0 0 0 0 0 0 0 0 0 0 0 0 0 0 0 0 0 0 0 0 0 0 0 0 0 0 0 0 0 0 0 0 0 0 0 0 0 0 0 0
0 0 0 0 0 0 0 0 0 0 0 0 0 0 0 0 0 0 0 0 0 0 0 0 0 0 0 0 0 0 0 0 0 0 0 0 0 0 0 0 0 0 0 0
0 0 0 0 0 0 0 0 0 0 0 0 0 0 0 0 0 0 0 0 0 0 0 0 0 0 0 0 0 0 0 0 0 0 0 0 0 0 0 0 0 0 0 0
0 0 0 0 0 0 0 0 0 0 0 0 0 0 0 0 0 0 0 0 0 0 0 0 0 0 0 0 0 0 0 0 0 0 0 0 0 0 0 0 0 0 0 0
0 0 0 0 0 0 0 0 0 0 0 0 0 0 0 0 0 0 0 0 0 0 0 0 0 0 0 0 0 0 0 0 0 0 0 0 0 0 0 0 0 0 0 0
Height
5802 5803 5804 5805 5807 5808 5809 5811 5813 5815 5817 5819 5820 5822 5824 5826 5829 5832 5835 5838 5841 5845 5849 5852 5856 5859 5862 5865 5868 5871 5873 5876 5878 5880 5881 5883 5884 5885 5886 5886 5887 5887 5887 5887
5798 5799 5800 5802 5804 5805 5806 5808 5810 5811 5814 5815 5817 5819 5821 5823 5826 5829 5832 5835 5839 5842 5846 5849 5853 5856 5859 5862 5865 5868 5871 5873 5875 5877 5879 5881 5882 5883 5884 5885 5885 5885 5885 5885
5795 5796 5797 5799 5801 5801 5803 5805 5806 5808 5811 5811 5813 5815 5818 5820 5822 5825 5828 5832 5835 5838 5842 5846 5849 5852 5855 5858 5861 5865 5868 5870 5872 5874 5876 5878 5879 5880 5882 5882 5883 5883 5884 5884
5791 5793 5794 5799 5797 5797 5799 5801 5802 5804 5806 5807 5809 5811 5814 5816 5819 5822 5825 5828 5832 5835 5839 5842 5846 5849 5852 5855 5858 5861 5864 5867 5869 5871 5873 5875 5876 5878 5879 5880 5880 5881 5881 5881
5787 5788 5790 5794 5794 5794 5795 5797 5799 5800 5803 5804 5805 5808 5811 5814 5816 5819 5822 5825 5829 5832 5835 5838 5842 5845 5849 5852 5855 5858 5860 5863 5865 5868 5870 5871 5873 5874 5875 5876 5877 5878 5878 5878
5783 5785 5787 5791 5791 5791 5793 5794 5796 5797 5799 5801 5802 5805 5809 5811 5814 5816 5819 5822 5825 5828 5831 5835 5838 5842 5845 5848 5851 5854 5856 5859 5861 5864 5866 5868 5869 5871 5872 5873 5874 5874 5875 5875
5779 5781 5783 5787 5787 5788 5791 5793 5793 5794 5795 5798 5800 5803 5806 5808 5810 5813 5816 5819 5822 5825 5828 5832 5835 5838 5841 5844 5847 5850 5852 5855 5858 5860 5862 5864 5865 5867 5868 5869 5870 5870 5871 5871
5775 5777 5782 5783 5784 5785 5787 5788 5789 5791 5792 5794 5797 5799 5801 5804 5807 5810 5813 5816 5819 5822 5825 5828 5831 5834 5837 5840 5843 5845 5848 5851 5853 5855 5857 5859 5861 5862 5863 5864 5865 5866 5866 5866
5773 5776 5777 5778 5780 5781 5783 5785 5786 5788 5790 5791 5793 5795 5798 5801 5803 5806 5809 5812 5815 5818 5821 5824 5827 5830 5833 5836 5838 5841 5843 5846 5848 5851 5853 5854 5856 5857 5858 5859 5860 5860 5860 5861
5767 5770 5773 5774 5776 5778 5780 5782 5783 5785 5787 5788 5790 5792 5795 5797 5800 5803 5806 5809 5811 5815 5818 5821 5823 5826 5829 5831 5834 5836 5838 5841 5843 5845 5847 5849 5850 5851 5853 5853 5854 5854 5854 5854
5763 5766 5768 5770 5772 5774 5776 5778 5780 5782 5784 5785 5787 5789 5792 5794 5797 5799 5802 5805 5808 5810 5813 5816 5819 5821 5824 5826 5829 5831 5833 5836 5838 5840 5842 5843 5844 5846 5846 5847 5848 5848 5848 5848
5759 5762 5764 5766 5768 5770 5772 5774 5777 5779 5780 5782 5784 5786 5788 5791 5793 5796 5798 5801 5803 5806 5808 5811 5814 5816 5818 5821 5823 5826 5828 5830 5832 5834 5836 5837 5838 5839 5840 5841 5841 5841 5841 5841
5753 5755 5758 5761 5764 5766 5768 5771 5772 5774 5776 5778 5780 5782 5785 5787 5789 5792 5794 5797 5799 5802 5804 5806 5809 5811 5813 5815 5818 5820 5822 5824 5826 5827 5829 5830 5831 5832 5833 5834 5834 5834 5833 5833
5746 5750 5753 5756 5759 5761 5764 5766 5768 5770 5772 5774 5776 5778 5780 5783 5785 5788 5790 5792 5795 5797 5799 5801 5803 5806 5808 5809 5812 5814 5816 5817 5819 5821 5822 5823 5824 5825 5826 5826 5826 5826 5825 5825
5740 5743 5747 5751 5753 5756 5758 5761 5763 5765 5767 5769 5771 5774 5776 5778 5781 5783 5785 5787 5790 5792 5794 5796 5798 5800 5802 5803 5805 5807 5809 5810 5812 5813 5814 5815 5816 5817 5818 5818 5818 5817 5817 5816
5734 5737 5741 5744 5748 5751 5753 5755 5758 5760 5762 5764 5766 5769 5771 5773 5775 5778 5780 5782 5784 5786 5788 5790 5792 5794 5795 5797 5798 5800 5802 5803 5804 5805 5806 5807 5808 5808 5809 5809 5809 5808 5808 5807
5728 5731 5735 5738 5742 5745 5747 5750 5752 5755 5757 5759 5761 5763 5765 5767 5770 5772 5774 5776 5778 5780 5782 5784 5786 5787 5788 5790 5791 5793 5794 5795 5796 5797 5798 5799 5799 5800 5800 5800 5799 5799 5798 5797
5721 5725 5728 5732 5735 5738 5740 5743 5746 5748 5751 5754 5756 5758 5760 5762 5764 5766 5768 5770 5772 5774 5775 5777 5779 5780 5781 5782 5784 5785 5786 5787 5788 5789 5789 5790 5790 5790 5790 5790 5790 5789 5788 5787
5714 5718 5721 5724 5727 5730 5733 5736 5739 5741 5744 5746 5749 5751 5753 5755 5757 5759 5761 5763 5764 5766 5768 5769 5771 5772 5773 5774 5775 5776 5777 5778 5779 5779 5780 5780 5780 5780 5780 5780 5779 5778 5777 5775
5706 5710 5714 5717 5720 5723 5726 5729 5732 5734 5737 5739 5742 5744 5746 5748 5750 5752 5754 5755 5757 5759 5760 5761 5763 5764 5765 5766 5767 5768 5768 5769 5769 5770 5770 5770 5770 5770 5769 5769 5768 5767 5765 5764
5699 5702 5706 5710 5713 5716 5718 5721 5724 5727 5729 5731 5734 5736 5738 5740 5742 5744 5746 5748 5749 5751 5752 5753 5754 5755 5756 5757 5758 5758 5759 5759 5760 5760 5760 5760 5759 5759 5758 5757 5756 5754 5753 5751
5690 5694 5698 5701 5705 5708 5710 5713 5716 5718 5721 5723 5725 5728 5730 5732 5734 5735 5737 5739 5741 5742 5743 5744 5745 5746 5747 5747 5748 5748 5749 5749 5749 5749 5749 5748 5748 5747 5746 5744 5743 5741 5740 5738
5682 5686 5689 5693 5696 5699 5702 5705 5707 5710 5712 5714 5716 5719 5721 5723 5724 5726 5728 5730 5732 5733 5734 5734 5735 5736 5737 5737 5738 5738 5738 5738 5738 5737 5736 5736 5735 5734 5732 5731 5729 5728 5725 5723
5673 5677 5680 5684 5687 5690 5693 5696 5698 5701 5703 5705 5707 5709 5711 5713 5715 5717 5718 5720 5721 5723 5723 5724 5725 5725 5726 5726 5726 5726 5726 5726 5725 5724 5723 5722 5721 5720 5718 5717 5715 5713 5711 5709
5664 5667 5671 5675 5678 5681 5684 5687 5689 5692 5694 5696 5698 5700 5701 5703 5705 5707 5708 5709 5711 5712 5713 5713 5714 5714 5714 5715 5714 5714 5714 5713 5712 5711 5710 5709 5708 5706 5704 5703 5701 5699 5696 5694
5655 5659 5662 5666 5669 5672 5674 5677 5679 5682 5684 5686 5688 5690 5692 5693 5695 5696 5697 5698 5699 5700 5701 5702 5702 5702 5702 5702 5702 5701 5701 5700 5699 5698 5697 5695 5694 5692 5690 5688 5686 5683 5681 5678
5646 5649 5653 5656 5659 5662 5665 5667 5670 5672 5674 5676 5678 5680 5681 5682 5684 5685 5686 5687 5688 5688 5689 5689 5690 5690 5690 5689 5689 5688 5687 5686 5685 5684 5682 5681 5679 5677 5675 5672 5670 5667 5665 5662
Wind_Speed
15 15 15 15 16 16 15 15 15 14 14 14 17 18 19 20 20 20 19 20 20 22 23 22 22 21 20 20 20 19 18 16 15 13 11 10 9 9 8 7 6 5 4 4
16 16 16 15 15 16 15 14 14 15 14 15 17 19 19 19 20 20 20 20 21 22 22 22 22 22 21 20 20 19 18 17 16 14 13 12 11 10 10 9 8 7 6 6
16 16 17 14 14 16 15 14 14 14 13 15 16 19 19 19 20 20 20 20 21 22 22 22 22 22 21 21 21 20 19 18 17 15 14 13 12 11 11 10 9 9 8 8
17 16 16 12 14 15 15 14 14 13 14 15 16 18 19 19 19 19 20 21 21 22 23 22 22 22 22 21 21 20 20 19 18 17 16 14 14 13 12 12 11 11 10 10
17 17 14 12 13 14 15 14 14 14 15 16 17 17 18 19 18 17 19 20 21 23 24 24 23 22 22 21 20 20 19 19 18 17 17 16 15 15 15 14 14 13 13 12
18 17 14 12 12 13 14 13 14 14 14 15 16 16 17 18 18 18 18 19 21 22 23 23 23 22 22 21 20 20 20 20 19 18 18 17 17 17 16 16 16 15 15 15
18 17 14 13 12 13 13 12 13 15 15 16 16 16 18 18 19 20 19 19 21 22 22 22 23 22 22 22 21 21 21 20 20 19 19 19 18 18 18 17 17 17 17 17
18 17 13 13 13 13 13 13 14 14 14 15 17 18 19 19 19 21 21 21 21 21 21 21 21 21 21 21 22 22 22 22 21 20 20 20 20 19 19 19 19 18 18 19
19 16 15 15 14 14 13 12 13 13 14 15 16 18 19 19 19 20 21 21 21 21 21 21 22 22 22 22 23 22 22 22 22 22 22 22 21 21 20 20 20 20 20 21
20 17 16 16 15 15 14 13 13 14 14 15 16 17 17 18 20 21 21 21 21 21 21 21 22 22 23 23 23 23 24 23 22 22 22 22 22 22 22 22 22 22 22 23
20 18 18 17 18 16 15 15 15 15 15 15 16 17 18 19 20 21 21 21 21 21 21 22 22 23 23 23 22 23 23 23 23 23 23 23 23 23 23 23 23 23 24 24
22 21 20 18 18 17 16 15 16 16 16 15 17 17 18 19 20 20 21 21 21 21 21 22 22 22 23 23 23 23 23 24 24 24 24 24 24 24 25 25 25 25 25 26
24 23 22 20 20 19 18 17 17 17 16 16 16 17 17 18 19 20 20 21 21 22 22 23 23 23 23 23 23 23 23 24 24 24 25 25 25 26 26 26 27 27 27 28
24 24 23 21 21 21 20 19 18 18 17 17 16 17 17 18 19 19 19 19 20 21 22 23 23 24 24 23 23 23 24 24 25 25 25 26 26 27 27 28 28 29 29 30
25 25 25 23 22 22 21 20 20 19 18 18 18 18 18 18 19 19 19 19 20 20 21 22 23 24 24 25 25 25 25 25 26 26 27 28 28 28 29 30 30 30 31 31
26 26 26 25 24 23 22 22 22 20 20 20 20 20 20 20 20 21 21 21 20 20 21 22 22 23 24 25 26 26 27 27 27 28 28 29 29 30 30 31 31 31 32 33
27 27 26 25 25 24 23 24 24 24 22 22 22 22 22 22 22 22 22 22 22 22 22 23 24 25 25 25 26 26 27 28 28 29 29 30 30 31 31 32 32 32 33 34
28 27 27 26 25 25 25 25 25 26 26 25 24 24 24 24 24 24 24 24 24 24 24 25 25 25 26 26 27 27 28 29 29 30 30 31 31 32 32 33 33 34 35 37
29 29 28 27 26 26 26 26 26 26 27 27 26 26 25 25 25 25 26 26 26 25 26 26 27 27 27 27 28 29 29 30 31 31 31 32 33 33 34 35 36 37 38 39
31 30 29 29 28 28 27 28 28 28 28 27 27 27 26 26 26 26 26 26 26 26 27 27 28 28 28 29 29 30 30 31 31 32 33 33 34 35 36 37 38 39 40 41
33 32 31 30 30 29 29 28 28 29 29 29 29 29 28 28 28 28 28 28 27 28 28 28 29 29 30 30 30 31 32 32 33 34 35 36 36 37 38 39 40 41 42 42
33 33 33 32 32 31 30 30 29 29 29 30 30 31 30 30 30 30 29 29 29 29 29 29 30 31 31 32 33 34 34 35 35 36 37 38 39 40 41 42 42 43 44 44
34 34 33 32 32 32 32 31 30 30 30 31 31 31 31 31 31 31 31 31 31 31 31 32 32 33 33 34 35 35 36 37 37 38 39 39 41 42 43 44 44 45 45 46
34 34 34 33 32 32 32 32 32 32 32 32 32 32 33 33 33 33 33 33 34 34 34 34 34 35 35 36 36 37 38 38 39 40 41 42 43 43 44 45 46 46 47 48
34 34 34 33 33 32 32 32 33 33 33 33 33 34 34 34 34 34 35 35 36 36 37 37 37 37 38 38 39 39 40 40 41 42 42 43 44 44 45 45 46 47 49 50
35 35 35 35 35 34 34 34 34 34 34 34 34 35 35 35 36 36 36 37 37 38 38 38 39 39 40 40 41 41 41 42 43 44 44 45 45 46 46 47 48 49 50 51
35 36 35 35 35 35 35 35 35 35 35 35 34 35 36 36 37 37 38 38 39 39 40 40 41 42 42 43 43 43 44 44 45 45 46 47 47 48 49 50 51 51 51 52
Wind_Direction
236 239 241 240 241 242 243 243 241 234 228 222 221 218 219 220 222 222 220 219 215 212 211 211 214 215 215 214 212 213 214 214 213 215 219 223 226 229 232 236 245 257 270 271
237 242 246 246 245 246 243 242 242 236 229 225 222 219 218 219 221 222 221 219 217 215 213 213 214 215 217 214 213 213 214 215 217 220 223 227 230 232 235 240 246 256 265 267
241 246 249 249 245 244 243 242 242 236 228 228 222 218 217 218 219 220 220 219 215 214 215 215 216 218 217 215 214 215 216 218 220 223 226 228 232 236 239 244 248 253 260 266
243 246 250 250 244 244 242 238 239 234 227 227 222 221 220 220 219 218 217 217 214 214 214 215 217 219 217 216 217 217 219 222 223 227 229 231 234 237 241 247 251 254 259 265
242 247 247 245 246 245 243 239 237 232 228 231 226 222 218 217 215 213 214 216 217 216 216 219 219 219 218 218 219 220 223 225 225 228 231 235 238 241 244 248 252 256 259 264
241 245 246 240 242 245 242 237 234 232 231 232 228 224 217 217 217 216 216 218 218 218 218 217 217 219 219 221 222 223 226 228 229 232 235 238 241 243 247 250 253 256 260 265
242 246 244 237 235 238 239 236 233 233 231 231 229 222 219 220 218 218 219 218 219 220 220 220 220 221 222 223 224 225 228 230 232 234 238 241 243 245 248 251 255 259 263 267
240 242 237 231 233 235 234 231 230 231 231 228 224 221 222 221 219 218 219 220 220 222 223 224 224 225 226 227 227 228 231 233 234 237 239 242 245 247 250 253 256 260 265 269
237 236 233 229 230 230 229 231 231 232 231 226 222 223 224 224 222 220 220 221 224 226 226 227 228 229 228 230 232 231 232 234 237 239 242 244 247 249 252 255 258 262 266 270
232 231 228 228 229 229 228 230 232 232 232 230 226 226 226 224 223 221 220 222 225 226 227 229 231 231 231 233 234 235 235 236 238 241 243 246 249 251 254 257 260 264 267 271
232 231 229 228 230 231 228 228 231 234 236 235 233 231 228 226 223 222 224 227 228 228 229 229 232 233 233 234 235 236 237 238 240 244 246 249 251 254 256 259 262 266 269 273
232 233 232 229 228 230 230 230 233 236 237 236 234 232 229 227 227 227 228 230 231 231 230 231 233 235 236 235 237 238 239 241 244 247 250 253 255 257 259 261 264 267 271 274
230 231 231 230 231 233 233 234 236 234 233 232 233 233 232 231 230 230 231 232 233 234 235 237 238 239 239 239 241 243 243 245 247 250 252 255 258 259 261 263 265 268 271 274
228 229 231 232 232 233 235 236 236 236 236 234 235 234 234 233 233 234 235 235 234 235 237 239 241 241 242 245 246 247 247 249 251 253 255 257 259 261 263 266 268 270 273 276
227 229 230 232 233 234 236 237 236 235 236 235 235 235 235 235 236 237 237 238 239 240 241 242 244 245 246 247 248 249 252 253 254 256 258 259 261 263 266 268 270 272 274 277
227 230 232 233 234 236 238 238 239 237 237 236 235 236 237 238 238 240 240 241 243 244 244 245 246 248 250 250 250 252 254 255 257 259 260 262 263 265 267 269 271 273 276 278
228 230 231 233 235 238 239 240 240 240 240 240 239 238 239 241 240 241 243 244 245 246 248 249 250 251 252 253 253 255 257 258 259 260 261 263 265 267 268 270 272 275 277 279
229 230 231 235 238 239 238 238 239 240 240 241 242 242 242 243 243 243 245 246 248 250 252 253 254 255 256 257 256 257 259 260 262 262 263 265 267 268 270 272 274 276 278 280
232 231 233 237 239 239 238 238 239 240 241 241 242 244 245 244 244 246 248 249 250 251 253 255 256 257 258 259 259 260 260 262 263 263 265 266 268 269 271 273 275 278 279 281
233 234 236 238 239 239 239 242 242 242 242 241 242 244 246 247 247 249 251 252 253 255 257 258 259 259 260 261 261 262 263 264 264 265 267 269 270 271 273 275 277 279 281 282
234 235 236 238 239 241 242 243 244 244 243 242 243 245 246 247 249 251 253 254 255 257 258 260 260 261 261 261 262 264 265 266 267 268 269 270 271 273 274 276 278 279 281 282
234 236 237 237 238 240 242 244 244 244 245 245 245 247 248 249 250 251 253 255 256 257 258 260 261 262 263 264 265 266 267 268 269 270 272 272 274 275 277 278 279 280 281 282
234 236 237 237 238 240 242 243 244 246 246 247 247 248 248 249 251 252 254 256 257 258 260 261 263 264 265 267 268 269 270 271 272 273 274 274 276 277 278 279 279 281 282 283
233 234 236 238 239 241 243 245 247 248 248 249 249 249 250 251 252 254 255 257 258 259 260 262 264 266 268 270 271 271 272 273 274 274 275 276 277 278 279 279 280 281 282 283
234 234 235 238 240 242 244 245 246 248 249 250 250 251 252 253 254 255 257 258 260 261 262 264 266 267 269 270 271 273 274 275 275 275 276 277 278 279 279 280 281 282 284 285
237 238 239 240 242 244 245 247 248 248 250 252 252 252 253 255 256 258 259 261 262 264 265 266 268 269 270 271 272 274 275 276 276 277 278 279 279 280 281 282 283 284 285 285
240 240 241 242 244 245 246 248 249 250 251 253 254 255 255 257 258 260 261 263 264 265 266 267 268 269 271 272 274 274 276 277 278 278 280 281 281 282 282 283 284 285 286 286